• In Kazakhstan
  • List of Countries
  • For 7 days
  • Water Temperature
  • Satellite Maps
  • Weather Map
  • News
  • Weather Widgets
  • user-avatar
    Login

    Hourly Weather Salta

    Today, 21 July, Sunday

    Time Temperature Precipitation Wind Pressure Humidity
    00:00 +15°C° 0 mm 2 mps 647 mmHg 40%
    01:00 +15°C° 0 mm 2 mps 647 mmHg 37%
    02:00 +15°C° 0 mm 2 mps 646 mmHg 34%
    03:00 +15°C° 0 mm 2 mps 646 mmHg 32%
    04:00 +15°C° 0 mm 2 mps 645 mmHg 30%
    05:00 +14°C° 0 mm 2 mps 645 mmHg 28%
    06:00 +15°C° 0 mm 2 mps 645 mmHg 26%
    07:00 +16°C° 0 mm 3 mps 645 mmHg 23%
    08:00 +16°C° 0 mm 3 mps 646 mmHg 21%
    09:00 +20°C° 0 mm 2 mps 647 mmHg 18%
    10:00 +24°C° 0 mm 2 mps 648 mmHg 14%
    11:00 +28°C° 0 mm 2 mps 649 mmHg 11%
    12:00 +30°C° 0 mm 1 mps 649 mmHg 10%
    13:00 +31°C° 0 mm 1 mps 648 mmHg 9%
    14:00 +33°C° 0 mm 1 mps 648 mmHg 7%
    15:00 +31°C° 0 mm 1 mps 648 mmHg 10%
    16:00 +29°C° 0 mm 1 mps 647 mmHg 12%
    17:00 +26°C° 0 mm 0 mps 647 mmHg 14%
    18:00 +25°C° 0 mm 1 mps 647 mmHg 15%
    19:00 +23°C° 0 mm 1 mps 647 mmHg 15%
    20:00 +20°C° 0 mm 2 mps 647 mmHg 15%
    21:00 +19°C° 0 mm 2 mps 647 mmHg 17%
    22:00 +19°C° 0 mm 2 mps 648 mmHg 19%
    23:00 +18°C° 0 mm 2 mps 648 mmHg 21%

    Tomorrow, 22 July, Monday

    Time Temperature Precipitation Wind Pressure Humidity
    00:00 +18°C° 0 mm 2 mps 648 mmHg 20%
    01:00 +17°C° 0 mm 2 mps 648 mmHg 20%
    02:00 +17°C° 0 mm 2 mps 648 mmHg 19%
    03:00 +16°C° 0 mm 2 mps 648 mmHg 21%
    04:00 +16°C° 0 mm 2 mps 648 mmHg 22%
    05:00 +15°C° 0 mm 2 mps 648 mmHg 24%
    06:00 +14°C° 0 mm 2 mps 649 mmHg 34%
    07:00 +14°C° 0 mm 1 mps 649 mmHg 44%
    08:00 +13°C° 0 mm 1 mps 650 mmHg 54%
    09:00 +15°C° 0 mm 2 mps 650 mmHg 53%
    10:00 +16°C° 0 mm 2 mps 651 mmHg 51%
    11:00 +17°C° 0 mm 3 mps 651 mmHg 50%
    12:00 +17°C° 0 mm 3 mps 650 mmHg 50%
    13:00 +18°C° 0 mm 3 mps 650 mmHg 50%
    14:00 +18°C° 0 mm 4 mps 649 mmHg 50%
    15:00 +15°C° 0 mm 4 mps 649 mmHg 52%
    16:00 +14°C° 0 mm 3 mps 648 mmHg 54%
    17:00 +13°C° 0 mm 3 mps 648 mmHg 56%
    18:00 +12°C° 0 mm 2 mps 648 mmHg 57%
    19:00 +9°C° 0 mm 2 mps 649 mmHg 59%
    20:00 +9°C° 0 mm 1 mps 649 mmHg 61%
    21:00 +9°C° 0 mm 1 mps 649 mmHg 58%
    22:00 +9°C° 0 mm 1 mps 649 mmHg 56%
    23:00 +9°C° 0 mm 1 mps 650 mmHg 53%

    Day after tomorrow, 23 July, Tuesday

    Time Temperature Precipitation Wind Pressure Humidity
    00:00 +8°C° 0 mm 1 mps 649 mmHg 54%
    01:00 +7°C° 0 mm 0 mps 649 mmHg 56%
    02:00 +6°C° 0 mm 0 mps 649 mmHg 57%
    03:00 +6°C° 0 mm 0 mps 649 mmHg 58%
    04:00 +6°C° 0 mm 0 mps 649 mmHg 58%
    05:00 +5°C° 0 mm 0 mps 649 mmHg 59%
    06:00 +6°C° 0 mm 0 mps 649 mmHg 56%
    07:00 +6°C° 0 mm 0 mps 650 mmHg 54%
    08:00 +7°C° 0 mm 1 mps 650 mmHg 51%
    09:00 +9°C° 0 mm 1 mps 651 mmHg 45%
    10:00 +10°C° 0 mm 2 mps 651 mmHg 38%
    11:00 +13°C° 0 mm 2 mps 651 mmHg 32%
    12:00 +12°C° 0 mm 3 mps 651 mmHg 31%
    13:00 +13°C° 0 mm 3 mps 651 mmHg 29%
    14:00 +13°C° 0 mm 4 mps 650 mmHg 28%
    15:00 +12°C° 0 mm 4 mps 650 mmHg 29%
    16:00 +11°C° 0 mm 3 mps 649 mmHg 30%
    17:00 +10°C° 0 mm 3 mps 649 mmHg 31%
    18:00 +8°C° 0 mm 3 mps 649 mmHg 36%
    19:00 +6°C° 0 mm 2 mps 650 mmHg 41%
    20:00 +4°C° 0 mm 2 mps 650 mmHg 46%
    21:00 +4°C° 0 mm 1 mps 651 mmHg 48%
    22:00 +4°C° 0 mm 1 mps 651 mmHg 49%
    23:00 +3°C° 0 mm 1 mps 651 mmHg 50%

    24 July, Wednesday

    Time Temperature Precipitation Wind Pressure Humidity
    00:00 +3°C° 0 mm 1 mps 651 mmHg 51%
    01:00 +3°C° 0 mm 1 mps 652 mmHg 52%
    02:00 +3°C° 0 mm 1 mps 652 mmHg 53%
    03:00 +3°C° 0 mm 1 mps 652 mmHg 54%
    04:00 +2°C° 0 mm 1 mps 652 mmHg 55%
    05:00 +2°C° 0 mm 1 mps 652 mmHg 56%
    06:00 +3°C° 0 mm 1 mps 653 mmHg 53%
    07:00 +4°C° 0 mm 1 mps 653 mmHg 50%
    08:00 +5°C° 0 mm 1 mps 654 mmHg 47%
    09:00 +7°C° 0 mm 1 mps 655 mmHg 41%
    10:00 +8°C° 0 mm 2 mps 655 mmHg 36%
    11:00 +10°C° 0 mm 2 mps 656 mmHg 30%
    12:00 +12°C° 0 mm 2 mps 655 mmHg 29%
    13:00 +13°C° 0 mm 2 mps 655 mmHg 28%
    14:00 +12°C° 0 mm 3 mps 654 mmHg 28%
    15:00 +11°C° 0 mm 3 mps 654 mmHg 30%
    16:00 +10°C° 0 mm 3 mps 654 mmHg 33%
    17:00 +10°C° 0 mm 3 mps 654 mmHg 35%
    18:00 +8°C° 0 mm 3 mps 654 mmHg 40%
    19:00 +6°C° 0 mm 2 mps 655 mmHg 45%
    20:00 +5°C° 0 mm 1 mps 655 mmHg 49%
    21:00 +5°C° 0 mm 1 mps 655 mmHg 50%
    22:00 +4°C° 0 mm 1 mps 655 mmHg 51%
    23:00 +4°C° 0 mm 1 mps 655 mmHg 52%

    25 July, Thursday

    Time Temperature Precipitation Wind Pressure Humidity
    00:00 +4°C° 0 mm 1 mps 655 mmHg 52%
    01:00 +3°C° 0 mm 1 mps 655 mmHg 53%
    02:00 +3°C° 0 mm 1 mps 655 mmHg 54%
    03:00 +3°C° 0 mm 1 mps 654 mmHg 54%
    04:00 +3°C° 0 mm 1 mps 654 mmHg 55%
    05:00 +2°C° 0 mm 1 mps 654 mmHg 56%
    06:00 +3°C° 0 mm 1 mps 655 mmHg 52%
    07:00 +3°C° 0 mm 0 mps 655 mmHg 49%
    08:00 +4°C° 0 mm 0 mps 656 mmHg 46%
    09:00 +8°C° 0 mm 1 mps 657 mmHg 40%
    10:00 +10°C° 0 mm 1 mps 657 mmHg 34%
    11:00 +13°C° 0 mm 1 mps 658 mmHg 28%
    12:00 +13°C° 0 mm 2 mps 657 mmHg 27%
    13:00 +14°C° 0 mm 2 mps 657 mmHg 26%
    14:00 +15°C° 0 mm 2 mps 656 mmHg 25%
    15:00 +14°C° 0 mm 2 mps 656 mmHg 27%
    16:00 +14°C° 0 mm 2 mps 656 mmHg 28%
    17:00 +13°C° 0 mm 2 mps 655 mmHg 29%
    18:00 +10°C° 0 mm 2 mps 655 mmHg 34%
    19:00 +9°C° 0 mm 1 mps 655 mmHg 38%
    20:00 +6°C° 0 mm 1 mps 654 mmHg 43%
    21:00 +6°C° 0 mm 1 mps 654 mmHg 44%
    22:00 +5°C° 0 mm 1 mps 654 mmHg 44%
    23:00 +4°C° 0 mm 0 mps 654 mmHg 45%

    26 July, Friday

    Time Temperature Precipitation Wind Pressure Humidity
    00:00 +3°C° 0 mm 0 mps 654 mmHg 45%
    01:00 +3°C° 0 mm 0 mps 654 mmHg 46%
    02:00 +3°C° 0 mm 0 mps 653 mmHg 47%
    03:00 +2°C° 0 mm 0 mps 653 mmHg 47%
    04:00 +2°C° 0 mm 0 mps 653 mmHg 48%
    05:00 +2°C° 0 mm 0 mps 653 mmHg 48%
    06:00 +3°C° 0 mm 0 mps 653 mmHg 45%
    07:00 +4°C° 0 mm 0 mps 654 mmHg 42%
    08:00 +5°C° 0 mm 0 mps 655 mmHg 40%
    09:00 +9°C° 0 mm 1 mps 655 mmHg 35%
    10:00 +11°C° 0 mm 1 mps 656 mmHg 30%
    11:00 +14°C° 0 mm 1 mps 657 mmHg 25%
    12:00 +15°C° 0 mm 2 mps 656 mmHg 24%
    13:00 +16°C° 0 mm 2 mps 656 mmHg 23%
    14:00 +17°C° 0 mm 2 mps 655 mmHg 22%
    15:00 +16°C° 0 mm 2 mps 655 mmHg 23%
    16:00 +15°C° 0 mm 2 mps 654 mmHg 25%
    17:00 +15°C° 0 mm 2 mps 654 mmHg 26%
    18:00 +12°C° 0 mm 1 mps 654 mmHg 31%
    19:00 +10°C° 0 mm 1 mps 653 mmHg 36%
    20:00 +7°C° 0 mm 0 mps 653 mmHg 41%
    21:00 +6°C° 0 mm 0 mps 653 mmHg 43%
    22:00 +5°C° 0 mm 0 mps 653 mmHg 44%
    23:00 +5°C° 0 mm 0 mps 653 mmHg 45%
    Show more